{"data":{"norad_id":48990,"intl_designator":"2021-060Z","name":"ONEWEB-0272","alt_names":[],"object_type":"PAYLOAD","status":"ACTIVE","operator":null,"country":"UK","launch_date":"2021-07-01","launch_site_code":"VOSTO","launch_vehicle":null,"mission":null,"orbit_class":"UNKNOWN","rcs_meters":null,"size_class":null,"mass_kg":null,"dimensions":null,"purposes":["comms"],"wikipedia_slug":null,"has_3d_model":false,"image_url":null,"decayed_at":null,"tle_current":{"epoch":"2026-05-25T03:58:56.464320Z","epoch_age_seconds":53872,"freshness":"FRESH","line1":"1 48990U 21060Z   26145.16593130  .00000074  00000+0  15882-3 0  9992","line2":"2 48990  87.9108 233.3555 0002077  91.7487 268.3881 13.16595307236583","mean_motion":13.16595307,"eccentricity":0.0002077,"inclination_deg":87.9108,"raan_deg":233.3555,"arg_perigee_deg":91.7487,"mean_anomaly_deg":268.3881,"bstar":0.00015882,"rev_number":23658,"period_min":109.3730163205,"perigee_km":1196.1791269067,"apogee_km":1199.3261514628,"semimajor_km":7575.8896391847,"source":"CELESTRAK","updated_at":"2026-05-25T13:38:22.477412Z"}}}